Powrót do katalogu

COSMOS 1818 COOLANT

LostLEO
NORAD 50772·DEBRIS·🇷🇺 Russia

Wystrzelony Feb 1, 1987 z Baikonur Cosmodrome

Loading…

Następne Przeloty (najbliższe 24 godziny)

TLE

NieaktualneSource: Space-Track

Epoka: Nov 1, 2022, 10:14 UTC

1 50772U 87011AM  22305.42656872  .00000702  00000-0  28457-3 0  9998
2 50772  65.0145 323.0042 0012614 260.0029  99.9633 14.34391253468407

Śledź COSMOS 1818 COOLANT w czasie rzeczywistym z AllMySat

Download on the App Store